Regional Weather Roundup
Issued by NWS

Home | Current Version | Previous Version | Graphics & Text | Print | Product List | Glossary Off
Versions: 1 2 3 4 5 6 7 8 9 10 11 12 13 14 15 16 17 18 19 20 21 22 23 24 25 26 27 28 29 30 31 32 33 34 35 36 37 38 39 40 41 42 43 44 45 46 47 48 49 50

000
ASUS43 KMPX 031201
RWRMN
WEATHER ROUNDUP FOR MINNESOTA
NATIONAL WEATHER SERVICE TWIN CITIES/CHANHASSEN MN
600 AM CST SAT DEC 03 2016


NOTE: "FAIR" INDICATES FEW OR NO CLOUDS BELOW 12,000 FEET WITH NO
SIGNIFICANT WEATHER AND/OR OBSTRUCTIONS TO VISIBILITY. N/A MEANS
CURRENT SKY AND/OR WEATHER CONDITIONS ARE NOT AVAILABLE.

MNZ060>063-068>070-031300-
   Twin Cities Metro

CITY           SKY/WX    TMP DP  RH WIND       PRES   REMARKS
TWIN CITIES    CLOUDY    29  20  69 W7        30.31S WCI  22
6HR MIN TEMP:  29; 6HR MAX TEMP:  30;

ST PAUL        CLOUDY    29  23  78 W7        30.32F WCI  22
CRYSTAL        CLOUDY    29  18  63 SW3       30.29F
BLAINE         CLOUDY    30  23  74 W5        30.29F WCI  25
LAKEVILLE        N/A     27  21  80 CALM      30.30S
EDEN PRAIRIE   CLOUDY    30  21  69 W3        30.30S
6HR MIN TEMP:  29; 6HR MAX TEMP:  30;

SOUTH ST PAUL  CLOUDY    30  23  74 W3        30.31S
LAKE ELMO      CLOUDY    30  28  93 SW7       30.31S WCI  23
$$
MNZ001>005-007-008-013>017-022>024-027-028-031300-
   Northwest Minnesota

CITY           SKY/WX    TMP DP  RH WIND       PRES   REMARKS
BEMIDJI        CLOUDY    24  18  80 SW3       30.21F
HALLOCK        CLOUDY    28  25  86 S14G20    30.17F WCI  17
ROSEAU         CLOUDY    28  21  74 S9        30.19S WCI  20
WARROAD        CLOUDY    27  21  80 S3        30.20S
THIEF RVR FALL CLOUDY    25  20  81 S16       30.21F WCI  12
CROOKSTON      CLOUDY    27  19  74 S14       30.22F WCI  15
FOSSTON        CLOUDY    21  18  86 S12       30.22F WCI   9
DETROIT LAKES  CLOUDY    27  21  80 SW8       30.23S WCI  18
MOORHEAD       CLOUDY    25  18  74 S7        30.24F WCI  17
PARK RAPIDS    CLOUDY    25  16  68 S8        30.22S WCI  16
$$
MNZ006-009>011-018-025>026-031300-
   North Central Minnesota

CITY           SKY/WX    TMP DP  RH WIND       PRES   REMARKS
BAUDETTE       CLOUDY    25  21  85 S5        30.20F WCI  19
FLAG ISLAND    CLOUDY    27  21  80 S5        30.19S WCI  21
INTL FALLS     CLOUDY    24  20  84 SW7       30.22S WCI  16
6HR MIN TEMP:  22; 6HR MAX TEMP:  24;

WASKISH        CLOUDY    25  23  93 SE5       30.21F WCI  19
BIG FORK       CLOUDY    27  19  74 CALM      30.23F
LONGVILLE      CLOUDY    25  19  80 SW3       30.24S
GRAND RAPIDS   CLOUDY    25  20  81 CALM      30.26S
CRANE LAKE     CLOUDY    21  21 100 CALM      30.26S
ORR            CLOUDY    21  18  86 CALM      30.21S
COOK           CLOUDY    21  19  93 CALM      30.24F
$$
MNZ012-019>021-037-031300-
   Northeast Minnesota

CITY           SKY/WX    TMP DP  RH WIND       PRES   REMARKS
DULUTH         CLOUDY    27  24  89 NW5       30.23R WCI  22
6HR MIN TEMP:  27; 6HR MAX TEMP:  27;

ELY            CLOUDY    21  21 100 CALM      30.23R FOG
HIBBING        CLOUDY    23  20  88 CALM      30.24S
EVELETH        CLOUDY    25  21  86 W8        30.24S WCI  16
DULUTH HARBOR  CLOUDY    30  27  86 W8        30.28S WCI  23
TWO HARBORS    CLOUDY    30  25  80 NW3       30.23R
SILVER BAY     CLOUDY    28  25  86 CALM      30.22S
GRAND MARAIS     N/A     29  23  78 N8        30.25S WCI  21
G MARAIS ARPRT CLOUDY    19  16  86 CALM      30.19F
$$
MNZ029>031-032-039>041-046>048-054>057-064-031300-
   West Central Minnesota

CITY           SKY/WX    TMP DP  RH WIND       PRES   REMARKS
FERGUS FALLS   CLOUDY    25  18  74 SW8       30.29S WCI  16
MORRIS         CLOUDY    27  19  74 S8        30.26S WCI  18
ALEXANDRIA     CLOUDY    24  19  81 S7        30.26S WCI  16
ELBOW LAKE     CLOUDY    24  19  80 S5        30.26S WCI  18
WADENA         CLOUDY    23  18  80 SW5       30.24S WCI  17
GLENWOOD       CLOUDY    25  19  80 S7        30.27S WCI  17
APPLETON       CLOUDY    27  19  74 S6        30.28S WCI  20
BENSON         CLOUDY    27  18  69 SW5       30.29S WCI  21
ORTONVILLE     MOCLDY    27  18  69 CALM      30.26F
MADISON        CLOUDY    28  23  80 S7        30.28F WCI  21
WILLMAR        CLOUDY    28  21  74 CALM      30.30S
$$
MNZ033>034-036-042>043-049>051-058-059-031300-
   Central Minnesota

CITY           SKY/WX    TMP DP  RH WIND       PRES   REMARKS
ST CLOUD       CLOUDY    28  21  75 S3        30.27F
6HR MIN TEMP:  27; 6HR MAX TEMP:  29;

PAYNESVILLE    CLOUDY    26  19  76 W5        30.29F WCI  20
AITKIN         CLOUDY    28  19  69 CALM      30.25S
PINE RIVER     CLOUDY    25  19  80 SW5       30.27F WCI  19
BRAINERD       CLOUDY    25  19  78 SW8       30.26S WCI  16
STAPLES        CLOUDY    21  18  86 CALM      30.25F
LONG PRAIRIE   CLOUDY    23  18  80 S7        30.27S WCI  15
LITTLE FALLS   CLOUDY    27  19  74 SW5       30.27S WCI  21
LITCHFIELD     CLOUDY    27  21  80 CALM      30.30S
BUFFALO        CLOUDY    28  22  76 CALM      30.31S
MAPLE LAKE     CLOUDY    29  23  79 CALM      30.30S
$$
MNZ037-044-045-052-053-031300-
   East Central Minnesota

CITY           SKY/WX    TMP DP  RH WIND       PRES   REMARKS
PRINCETON      CLOUDY    28  27  93 CALM      30.29S
MORA           CLOUDY    28  23  80 W3        30.30S
CAMBRIDGE      CLOUDY    30  21  69 CALM      30.28S
RUSH CITY      CLOUDY    28  25  86 W3        30.29S
MOOSE LAKE     CLOUDY    28  23  80 CALM      30.25R
HINCKLEY       CLOUDY    30  27  86 CALM      30.28S
CLOQUET        CLOUDY    27  23  86 W5        30.25R WCI  21
MCGREGOR       CLOUDY    27  23  86 CALM      30.26S
$$
MNZ071>073-080-081-089-090-097-098-031300-
   Southwest Minnesota

CITY           SKY/WX    TMP DP  RH WIND       PRES   REMARKS
MONTEVIDEO     PTCLDY    21  21 100 CALM      30.31S
GRANITE FALLS  CLOUDY    28  22  76 SW5       30.31F WCI  23
CANBY          PTCLDY    25  21  86 CALM      30.28F
MARSHALL       CLOUDY    24  19  81 CALM      30.29F
REDWOOD FALLS  CLOUDY    28  19  69 SW6       30.30F WCI  22
OLIVIA         PTCLDY    30  23  74 SW3       30.29F
PIPESTONE      CLOUDY    28  25  86 SE6       30.24F WCI  22
WINDOM         CLOUDY    27  21  80 CALM      30.29S
WORTHINGTON    CLOUDY    27  23  85 CALM      30.28F
JACKSON        CLOUDY    27  21  80 W3        30.29S
TRACY          CLOUDY    25  21  84 CALM      30.28F
SLAYTON        CLOUDY    25  21  85 CALM      30.27F
$$
MNZ065>067-074>077-082>085-091>093-031300-
   South Central Minnesota

CITY           SKY/WX    TMP DP  RH WIND       PRES   REMARKS
MANKATO        CLOUDY    28  24  85 SW6       30.31F WCI  22
NEW ULM        CLOUDY    28  21  74 W6        30.30F WCI  22
ST JAMES       CLOUDY    28  21  74 W7        30.31F WCI  21
FAIRMONT       CLOUDY    28  20  71 NW5       30.31S WCI  23
GLENCOE        CLOUDY    29  23  78 CALM      30.30S
FARIBAULT      CLOUDY    28  23  80 SW3       30.31S
OWATONNA       MIX PCPN  28  25  86 CALM      30.30S
WASECA         CLOUDY    28  25  86 W3        30.32S
ALBERT LEA     CLOUDY    30  25  80 W7        30.30S WCI  23
$$
MNZ078>079-086>088-094>096-031300-
   Southeast Minnesota

CITY           SKY/WX    TMP DP  RH WIND       PRES   REMARKS
ROCHESTER      CLOUDY    28  22  78 CALM      30.30S
6HR MIN TEMP:  28; 6HR MAX TEMP:  28;

RED WING       CLOUDY    30  19  64 W8        30.31S WCI  23
STANTON        CLOUDY    30  22  73 CALM      30.30S
DODGE CENTER   CLOUDY    27  23  86 NW3       30.29S
WINONA         CLOUDY    32  23  69 W5        30.34S WCI  27
AUSTIN         CLOUDY    28  19  69 W7        30.30S WCI  21
PRESTON        CLOUDY    28  23  81 CALM      30.31R
$$
ABBREVIATIONS USED IN REMARKS
   TC - TEMPERATURES IN CELSIUS
  WCI - WIND CHILL INDEX
   HX - HEAT INDEX
  VSB - VISIBILITY
$$



USA.gov is the U.S. government's official web portal to all federal, state and local government web resources and services.